Flag for Micronesia Weather past 2 weeks in Kolonia, Ponape, Micronesia

Now
87 °F

Cloudy.


Feels Like: 101 °F
Forecast: 76 / 88 °F
Wind: 5 mph from Southwest

Location: Pohnpei

Current Time: Sep 22, 2014 at 12:04:10 PM

Latest Report: Sep 22, 2014 at 10:52 AM


Visibility: 15 mi

Pressure: 29.85 "Hg

Humidity: 75%

Dew point: 78 °F

Location of KoloniaLocation

Historic Weather in Kolonia — Graph

°F

Kolonia temperature yesterday

Maximum temperature yesterday: 86 °F (at 10:54 AM)
Minimum temperature yesterday: 75 °F (at 4:53 AM)
Average temperature yesterday: 80 °F

Past Weeks' High & Low Weather Summary

 TemperatureHumidityPressure
High92 °F (Sep 11, 10:54 AM)100% (Sep 14, 3:50 AM)29.92 "Hg (Sep 14, 3:50 AM)
Low73 °F (Sep 10, 5:52 AM)61% (Sep 14, 10:57 AM)29.76 "Hg (Sep 19, 2:50 PM)
Average81 °F87%29.84 "Hg
* Reported Sep 7 10:54 AM — Sep 22 10:52 AM, Kolonia, Weather by CustomWeather, © 2014

Note: Actual official high and low records may vary slightly from our data, if they occured in-between our weather recording intervals... More about our weather records

Advertising

Kolonia weather history for previous 24 hours

 ConditionsComfort  
Time TempWeatherWind HumidityBarometerVisibility
10:52 AM
Sep 22
87 °FCloudy.5 mph75%29.85 "Hg15 mi
9:51 AM85 °FCloudy.3 mph77%29.87 "Hg15 mi
8:51 AM83 °FCloudy.5 mph82%29.87 "Hg15 mi
7:52 AM80 °FMostly cloudy.3 mph92%29.86 "Hg15 mi
5:51 AM76 °FOvercast.3 mph96%29.82 "Hg15 mi
4:50 AM77 °FPartly cloudy.3 mph91%29.80 "Hg15 mi
3:51 AM77 °FPartly cloudy.5 mph95%29.79 "Hg15 mi
2:53 AM76 °FOvercast.3 mph96%29.78 "Hg15 mi
1:53 AM76 °FMostly cloudy.5 mph96%29.80 "Hg15 mi
12:50 AM76 °FMostly cloudy.3 mph96%29.83 "Hg15 mi
11:54 PM
Sep 21
76 °FMostly cloudy.3 mph96%29.84 "Hg15 mi
10:53 PM76 °FPartly cloudy.3 mph97%29.84 "Hg15 mi
9:50 PM77 °FPassing clouds.5 mph94%29.85 "Hg15 mi
8:51 PM78 °FMostly cloudy.3 mph92%29.85 "Hg15 mi
7:53 PM78 °FPartly cloudy.6 mph92%29.84 "Hg15 mi
6:53 PM79 °FMostly cloudy.9 mph91%29.82 "Hg15 mi
5:52 PM78 °FLight rain. More clouds than sun.6 mph92%29.79 "Hg15 mi
4:53 PM79 °FMostly cloudy.5 mph91%29.79 "Hg15 mi
3:51 PM79 °FSprinkles. Mostly cloudy.5 mph90%29.78 "Hg15 mi
3:04 PM82 °FSprinkles. Mostly cloudy.3 mph84%29.79 "Hg15 mi
2:55 PM82 °FMore clouds than sun.5 mph82%29.78 "Hg15 mi
1:51 PM83 °FCloudy.6 mph82%29.78 "Hg15 mi
12:52 PM85 °FCloudy.9 mph77%29.81 "Hg15 mi
Weather by CustomWeather, © 2014

See weather overviewHow to use our weather pages